User: anonymous   Login
Location: Maiden
(35.5760°N, 81.2120°W)
Time: 05:53:30
(UTC-05:00)
Language:

Cosmos 2151 - Orbit

View from above orbital plane
View from above orbital plane
View from above satellite
View from above satellite

Ground track
Ground track

The orbit data is extracted from the following two-line orbital elements,

1 21422U 91042A   17016.14025553  .00000174  00000-0  14704-4 0  9999
2 21422  82.4991  31.1321 0015930  83.2381 277.0650 14.91761567385831
Epoch (UTC): 16 January 2017 03:21:58
Eccentricity: 0.0015930
inclination: 82.4991°
perigee height: 581 km
apogee height: 603 km
right ascension of ascending node: 31.1321°
argument of perigee: 83.2381°
revolutions per day: 14.91761567
mean anomaly at epoch: 277.0650°
orbit number at epoch: 38583

The dashed part of the orbit path shows where the satellite is in the earth's shadow,  

DLR